Погода в Рахмановке

Россия / Пензенская область     53°34′44″N   42°59′38″E
темп.,
°C
ветер,
м/с
пор.,
м/с
влажн.,
%
обл.,
%
осадки,
мм/ч
давл.,
гПа
погр.,
м
21 апреля, ср
ср2100:00+5вюв122291100 10.7 10091074
03:00+7юв132291100 13.4 1008918
06:00+7ююв12208893 0.1 1007782
09:00+7юв11188796 0.6 1009791
12:00+8ююв71294100 1.1 1009655
15:00+10ю71184100 1.8 1010960
18:00+7зюз81193100 1.4 1012600
21:00+5ююз4992100 2.3 1016458
22 апреля, чт
чт2200:00+6ю3790100 0.0 1017269
03:00+6ююв4109441 0.2 1017307
06:00+5ю5119416 0.1 1018339
09:00+8юз687658 0.1 1020930
12:00+10зюз686454 0.0 10211323
15:00+13зюз475017 0.0 10211810
18:00+12юз225978 0.0 102145
21:00+9ю34775 0.0 102259
23 апреля, пт
пт2300:00+7ююв33805 0.0 102238
03:00+6ююв338422 0.0 102243
06:00+7ююв378739 0.0 1022118
09:00+12ю46666 0.0 1022464
12:00+16ю454675 0.0 10212259
15:00+14ююв2354100 0.0 101983
18:00+13вюв376134 0.0 1019215
21:00+10вюв5117954 0.0 1018219
24 апреля, сб
сб2400:00+9ююв61187100 0.4 1016338
03:00+8ююв5118982 1.0 1015311
06:00+8юв5108898 0.1 1014311
09:00+12юв7107013 0.4 1012587
12:00+14ююв81058100 0.8 10101516
15:00+13ю71163100 2.1 10081812
18:00+6з61190100 2.4 1010745
21:00+5зюз4988100 3.6 1011742
25 апреля, вс
вс2500:00+4юз511840 0.0 1012339
03:00+3юз510870 0.0 1012313
06:00+2юз410893 0.0 1013398
09:00+6зюз69676 0.0 10131065
12:00+8зюз6850100 0.1 10132192
15:00+9зюз684994 0.6 10132075
18:00+8зюз575834 0.1 1013802
21:00+5юз377289 0.1 1015153